Showing default

COSMOS 203, 3129

Orbit data source: Space-Track

COSMOS 203, 3129 is a payload satellite owned by OKB-10 (CIS) in LEO that was launched on Tue, 20 Feb 1968 UTC via a KOSMOS 11K65M launch vehicle from the Plesetsk Missile And Space Complex (PKMTR). Payloads include a variety of satellites, spacecraft, and rockets equipped with specific instruments for various scientific and technological missions. These include communications satellites like Starlink; space stations such as the ISS; scientific satellites like the Hubble; Earth observation satellites from companies like Planet Labs, Umbra, and HawkEye 360; GPS; miniature CubeSats for education and research; and military/defense satellites.

Loading next visibility...
COSMOS 203 details
Identifier
3129, 1968-011A
Orbit
LEO
Last TLE update12 hours ago
Origin
Flag of CISOKB-10 (CIS)
ManufacturerOKB-10
MissionDefense Geodetic
Bus & MotorKAUR-1 11F621, Unknown motor
Mass800 kg wet, 800 kg dry
Launch date (UTC)
1968-02-20 (57 years ago)
Launch vehicle
KOSMOS 11K65M
Launch site
Plesetsk Missile And Space Complex (PKMTR)
Object type
Payload
Rocket body
Debris
Shape & HBRCyl + 1 Rod, 17 m
Radar Cross Section6.283 m², Large (>1 m²)

Expand to show TLE details & history

TLE from 12 hours ago
0 COSMOS 203
1 03129U 68011A   24356.72065969  .00000016  00000-0  88911-4 0  9993
2 03129  74.0498 188.6962 0011823 137.7110 298.0917 13.18281749734491
Epoch: 2024-12-21T17:17Z
Definitive object data (Epoch: 2024-12-21T17:17:44.997Z)
Latitude68.7789°
Longitude-114.42801°
Altitude1,198.627 km
Speed7.263 km/s
True Right ascension15h 43m 06s
True Declination68° 40' 10"
Sunlit
Object was in daylight at TLE epoch
Visualization TLE readout
Latitude24.69275°
Longitude-154.77834°
Altitude1,197.068 km
Speed7.256 km/s
Apparent Right ascension14h 35m 44s
Apparent Declination-5° 05' 01"
Sunlit
Object is in daylight
Visualization observer readout
Local Sidereal Time04:52:08
Azimuth50.444° ENE
Elevation-43.587°
Doppler factor1
Orbital elements
Apogee altitude1,197.992 km
Perigee altitude1,180.099 km
Semi-major axis7,567.182 km
Eccentricity0.0011823
Inclination74.0498°
RAAN188.6962°
Arg. of periapsis137.711°
True anomaly297.9721°
Mean anomaly298.0917°
Eccentric anomaly298.03191°
Mean motion3.29717 °/min
BSTAR0.000088911
Orbital period109.18 mins
Loading maneuver chart data...
Loading historical data...
Loading historical data...
Loading historical data...
Loading historical data...
Loading historical data...
Loading historical data...
Loading historical data...
Other satellites on launch #11 in the year 1968 (1968-02-20 UTC)

COSMOS 203 Visibility forecast

Observer location: undefined°, undefined

Span
Click to sort rows by Start time (UTC) header in descending order
Start Az.
Max El. time (UTC)
Max El. Az.
Max El.
End time (UTC)
End Az.
12 mins2024-12-22 13:02:29.552Z153.942° SSE2024-12-22 13:08:29.552Z98.377° ESE26.743°2024-12-22 13:14:29.552Z40.568° NE
12 mins2024-12-22 14:54:29.552Z226.899° WSW2024-12-22 14:59:29.552Z291.2° WNW37.429°2024-12-22 15:06:29.552Z8.825° NNE
9 mins2024-12-22 22:38:29.552Z16.855° NNE2024-12-22 22:42:29.552Z56.007° ENE19.735°2024-12-22 22:47:29.552Z100.187° ESE
13 mins2024-12-23 00:28:29.552Z337.482° NNW2024-12-23 00:34:29.552Z252.446° W44.374°2024-12-23 00:41:29.552Z169.345° S
|